Lapse_Rate
7.6 7.6 7.7 7.8 8.0 7.8 7.6 8.0 8.1 9.0 8.9 8.5 8.1 7.8 7.7 8.0 8.2 8.2 8.4 8.2 7.6 7.0 6.8 6.3 7.2 7.1 6.7 6.6 5.3 7.6 9.6 9.5 7.7 7.3 7.3 6.6 6.4 6.2 6.5 6.4 6.3 6.5 6.5 6.6 6.4 6.2 6.5
7.5 7.6 7.9 7.7 7.7 7.4 7.7 7.5 7.7 7.8 8.0 8.3 9.0 8.2 7.7 7.5 7.7 8.1 7.9 7.8 7.8 6.9 6.5 5.7 6.0 6.5 7.2 6.6 6.7 8.1 7.3 7.4 7.2 7.4 7.6 6.7 6.5 6.7 6.4 6.4 6.5 6.3 6.4 6.5 6.6 6.6 6.6
7.9 7.6 7.0 6.8 6.4 6.7 6.5 6.3 6.5 8.0 7.9 8.9 8.2 7.8 7.4 7.4 7.8 7.9 7.8 7.3 6.9 6.8 6.6 5.8 6.1 7.1 6.7 7.1 7.1 7.4 7.4 7.0 7.6 7.6 7.3 7.4 7.3 7.3 6.2 6.5 6.8 6.7 6.5 6.5 6.4 6.5 6.5
7.3 6.7 7.4 8.2 8.8 8.3 7.6 7.9 8.3 8.5 8.6 8.9 8.6 7.7 7.5 6.8 6.9 7.5 7.3 6.6 5.7 6.2 6.4 6.2 6.7 5.4 6.9 7.9 7.8 7.7 7.7 7.7 8.1 7.9 7.5 7.0 6.8 6.7 6.7 6.3 6.2 6.5 6.5 6.5 6.5 6.5 6.1
6.5 7.4 8.7 9.3 9.2 9.2 9.1 8.6 8.8 9.1 9.1 8.9 8.0 7.8 7.5 6.1 7.1 7.4 7.6 5.9 6.7 6.3 6.1 6.6 6.4 6.7 6.9 8.4 7.9 8.0 7.9 7.6 7.6 7.9 8.7 7.9 6.9 6.5 6.5 6.5 6.5 6.5 6.5 6.5 6.5 6.4 6.5
7.6 8.2 9.0 9.1 9.2 8.9 8.9 9.0 8.6 9.0 9.1 8.0 7.9 7.5 7.1 7.2 7.1 6.9 7.4 5.9 6.2 6.2 5.8 7.2 6.7 6.6 7.7 7.6 8.3 8.0 7.7 7.8 7.5 7.1 7.4 6.8 6.6 6.5 6.5 6.5 6.5 6.5 6.5 6.5 6.5 6.5 6.5
7.6 8.2 9.0 9.1 9.0 9.1 8.3 8.4 8.8 8.4 8.1 8.1 8.0 7.5 7.1 7.7 7.2 7.5 6.6 5.6 5.7 6.5 6.3 7.2 6.9 7.4 7.6 8.4 8.5 7.6 7.7 7.6 7.6 6.9 6.5 6.7 6.5 6.5 6.5 6.5 6.5 6.5 6.5 6.5 6.5 6.5 6.5
7.7 8.8 9.0 8.5 8.9 9.1 8.4 9.1 7.9 8.3 7.9 7.9 7.5 7.6 7.4 7.7 7.3 7.1 6.1 7.1 6.4 6.4 6.7 6.7 7.6 7.9 8.3 8.2 7.2 7.3 7.8 6.5 6.5 6.5 6.5 6.5 6.5 6.5 6.5 6.5 6.5 6.5 6.5 6.5 6.5 6.5 6.5
7.5 8.6 8.5 9.0 8.9 9.1 9.1 9.0 8.8 7.9 7.4 7.6 7.5 7.2 7.2 7.4 7.1 6.1 6.1 6.3 5.8 6.0 6.7 7.0 7.0 7.5 7.1 7.5 6.9 6.6 7.1 6.8 6.5 6.5 6.5 6.5 6.5 6.5 6.5 6.5 6.5 6.5 6.5 6.5 6.5 6.5 6.5
7.9 8.5 8.1 8.9 9.0 8.7 9.0 8.0 7.8 7.6 7.3 7.0 6.9 6.3 6.8 7.0 6.2 6.0 6.3 6.4 5.6 6.0 6.5 6.5 6.7 6.7 7.5 7.3 6.7 7.3 7.3 7.0 6.5 6.5 6.5 6.5 6.5 6.5 6.5 6.5 6.5 6.5 6.5 6.5 6.5 6.5 6.5
8.1 8.4 8.1 8.7 9.0 8.4 8.3 8.2 8.0 7.8 7.1 7.4 7.2 6.9 6.7 6.3 6.3 6.7 6.6 5.5 5.7 6.0 6.5 6.5 6.7 8.4 8.0 6.8 6.3 7.0 7.4 6.9 6.5 6.5 6.5 6.5 6.5 6.5 6.5 6.5 6.5 6.5 6.5 6.5 6.5 6.5 6.5
8.2 8.4 8.2 8.4 8.2 8.5 8.0 8.1 7.9 7.9 7.6 7.6 7.6 7.3 7.0 5.7 5.3 5.9 5.9 5.7 5.7 6.5 6.5 6.5 6.7 6.5 6.5 6.7 6.7 6.8 6.8 7.0 6.7 6.5 6.5 6.5 6.3 6.5 6.5 6.5 6.5 6.5 6.5 6.5 6.5 6.5 6.5
8.2 8.4 7.9 8.0 7.8 7.4 8.0 7.6 7.8 7.7 7.1 6.9 6.7 6.8 6.4 6.4 6.0 6.0 5.2 5.4 6.5 6.5 6.5 6.5 6.5 6.5 6.5 6.5 6.5 6.5 6.5 6.5 6.5 6.5 6.5 6.5 6.5 6.5 6.5 6.5 6.5 6.5 6.5 6.5 6.5 6.5 6.5
8.1 8.3 8.0 7.6 7.6 7.1 7.3 7.6 7.8 7.8 7.3 6.5 6.6 6.1 5.7 6.8 6.6 5.6 4.9 6.2 6.5 6.5 6.5 6.5 6.5 6.5 6.5 6.5 6.5 6.5 6.5 6.5 6.5 6.5 6.5 6.5 6.5 6.5 6.5 6.5 6.5 6.5 6.5 6.5 6.5 6.5 6.5
7.6 8.8 7.7 7.4 7.4 7.5 6.7 7.2 7.2 7.3 7.2 6.5 6.1 3.2 4.3 4.9 5.8 4.3 3.9 6.5 6.5 6.5 6.5 6.5 6.5 6.5 6.5 6.5 6.5 6.5 6.5 6.5 6.5 6.5 6.5 6.5 6.5 6.5 6.5 6.5 6.5 6.5 6.5 6.5 6.5 6.5 6.5
6.0 7.0 7.1 7.1 7.2 7.5 7.1 6.6 6.9 6.7 6.8 6.5 2.9 3.0 4.0 4.4 3.7 2.8 5.9 6.5 6.5 6.5 6.5 6.5 6.5 6.5 6.5 6.5 6.5 6.5 6.5 6.5 6.5 6.5 6.6 6.5 6.5 6.5 6.5 6.6 6.5 6.5 6.5 6.5 6.5 6.5 6.5
5.4 6.8 7.5 6.7 6.4 6.9 7.3 6.8 6.3 6.6 6.2 5.9 2.9 3.3 3.8 3.5 2.6 3.4 6.5 6.5 6.5 6.4 6.4 6.5 6.5 6.5 6.5 6.5 6.5 6.5 6.5 6.5 6.5 6.5 6.6 6.5 6.5 6.5 6.5 6.5 6.5 6.5 6.5 6.5 6.5 6.5 6.5
5.2 6.7 7.3 6.8 6.2 5.9 6.5 6.5 5.8 6.0 5.7 3.7 3.1 6.3 3.4 2.0 5.0 6.1 6.5 6.5 6.7 6.4 6.2 6.5 6.5 6.5 6.5 6.5 6.5 6.5 6.5 6.5 6.4 6.6 6.5 6.5 6.5 6.5 6.5 6.5 6.5 6.5 6.5 6.5 6.5 6.5 6.5
5.1 5.9 6.5 7.0 6.0 5.4 5.2 5.8 5.9 5.4 5.4 2.6 3.4 3.1 2.4 2.7 6.5 6.5 6.4 6.5 6.5 6.5 6.5 6.5 6.5 6.5 6.5 6.5 6.5 6.5 6.5 6.4 6.4 6.5 6.5 6.5 6.5 6.5 6.5 6.5 6.5 6.5 6.5 6.5 6.5 6.5 6.5
4.7 5.3 5.8 6.0 6.7 5.0 4.4 4.5 4.6 5.2 5.3 2.6 3.1 6.5 2.0 2.3 4.6 6.5 6.5 6.5 6.5 6.1 6.4 6.2 6.5 6.3 6.5 6.5 6.5 6.5 6.5 6.5 6.3 6.5 6.6 6.4 6.5 6.5 6.5 6.5 6.5 6.5 6.5 6.5 6.5 6.5 6.5
4.4 4.9 4.9 5.0 6.3 5.8 3.9 3.8 3.8 4.5 4.8 2.5 3.0 5.7 5.1 6.5 6.0 6.4 6.5 6.5 6.5 6.5 6.0 5.6 6.5 6.5 6.5 6.5 6.5 6.5 6.5 6.5 6.4 6.0 6.4 6.5 6.5 6.5 6.5 6.5 6.5 6.5 6.5 6.5 6.5 6.5 6.5
3.8 4.4 4.4 4.7 4.4 5.5 4.5 3.8 3.1 4.0 4.5 2.7 4.2 4.6 4.3 4.8 5.1 6.3 6.5 6.5 6.5 6.5 6.5 6.5 6.5 6.5 6.5 6.5 6.5 6.5 6.5 6.5 6.5 6.5 6.5 6.5 6.5 6.5 6.5 6.5 6.5 6.5 6.5 6.5 6.5 6.5 6.5
3.3 3.9 4.1 4.2 3.9 4.0 4.4 4.0 3.1 3.2 3.5 2.3 2.8 4.0 3.9 5.7 6.1 6.5 6.5 6.5 6.5 6.4 6.5 6.3 6.5 6.5 6.5 6.5 6.0 5.0 5.0 5.2 6.3 6.5 6.5 6.5 6.5 6.5 6.5 6.5 6.5 6.5 6.5 6.5 6.5 6.5 6.5
2.9 3.5 3.7 3.7 3.3 2.8 2.5 4.0 3.0 2.8 3.3 1.9 3.7 4.9 5.1 6.5 6.5 6.5 6.5 6.3 6.5 6.3 6.5 6.2 5.6 6.5 6.1 3.6 3.0 4.1 5.5 5.8 6.0 6.4 5.9 6.5 6.5 6.5 6.5 6.5 6.5 6.5 6.5 6.5 6.5 6.5 6.5
2.8 3.3 3.7 3.9 3.5 2.4 2.3 4.5 3.4 3.1 3.3 1.6 2.1 4.3 4.3 6.5 5.6 6.1 6.1 6.4 5.4 4.9 6.1 6.2 5.8 5.2 3.2 4.8 6.5 6.5 6.5 6.5 6.5 6.5 6.5 6.5 6.5 6.5 6.5 6.5 6.5 6.5 6.5 6.5 6.5 6.5 6.5
2.8 3.0 3.8 4.2 4.6 3.6 4.0 4.4 4.0 3.5 3.2 0.8 0.5 0.8 2.9 5.6 6.1 5.5 5.9 6.0 6.5 6.5 6.5 5.9 5.2 4.3 4.5 6.3 6.5 6.5 6.5 6.5 6.5 6.5 6.6 6.5 6.5 6.5 6.5 6.5 6.5 6.5 6.5 5.9 6.4 6.5 6.2
3.2 2.8 3.4 3.9 4.6 5.1 4.4 4.8 4.9 4.6 3.9 1.1 0.4 1.1 2.1 3.3 2.7 4.5 5.6 6.0 4.9 5.8 6.5 5.3 4.9 4.9 4.9 6.5 6.5 6.5 6.5 6.5 6.5 6.5 6.5 6.5 6.5 6.5 6.5 6.5 6.5 6.5 6.1 5.7 6.5 6.5 5.0
3.1 3.1 3.3 3.5 4.1 4.8 5.1 5.2 5.1 4.6 4.5 2.4 1.1 0.9 1.9 2.3 3.0 3.9 3.5 4.7 4.2 4.7 6.5 4.8 5.7 5.2 5.9 6.5 6.5 6.5 6.5 6.5 6.5 6.5 6.5 6.5 6.5 6.5 6.5 6.5 6.5 5.3 6.3 6.5 5.9 5.2 4.3
3.1 2.8 3.3 3.5 3.7 4.5 5.1 5.3 5.3 5.0 4.6 3.8 2.5 2.0 1.9 3.1 3.7 3.3 3.0 1.8 2.2 2.8 3.1 3.4 5.5 5.4 5.2 6.5 6.5 6.5 6.5 6.5 6.5 6.5 6.5 6.5 6.5 6.5 6.5 6.5 5.8 3.7 5.5 3.1 3.0 3.5 4.0
Wind_Speed
29 29 29 29 29 28 25 23 20 17 20 24 22 23 20 19 16 14 12 14 15 19 19 17 23 18 8 3 5 7 17 16 10 4 5 5 4 4 3 3 3 4 4 8 11 8 9
32 32 33 33 35 32 28 21 20 14 19 24 25 24 22 19 14 14 12 14 17 17 14 10 23 19 2 6 3 13 12 9 5 4 4 5 5 4 2 1 2 3 5 10 10 15 11
35 37 26 26 21 24 22 20 14 24 24 24 22 20 19 14 11 10 12 18 21 24 17 20 25 6 2 4 8 16 11 5 4 4 3 2 4 3 3 3 4 7 8 11 12 7 6
39 18 26 29 30 26 23 21 23 23 23 22 20 17 17 13 6 8 11 18 27 19 19 26 22 8 2 4 10 9 6 4 6 6 5 5 5 3 1 2 5 3 1 4 4 3 6
15 28 32 30 29 29 28 26 23 22 22 18 14 16 14 0 5 8 9 15 6 23 23 24 8 5 2 4 8 6 6 7 5 4 4 7 4 2 1 0 4 2 3 4 7 6 5
27 31 30 31 32 32 30 29 26 20 18 13 7 11 14 4 4 9 5 15 19 16 11 12 7 3 4 7 10 6 3 6 4 6 3 2 3 1 3 2 3 2 4 5 9 5 9
31 30 31 32 33 33 30 33 30 17 14 12 10 6 4 7 7 5 7 5 5 5 4 3 10 4 10 6 5 4 4 4 4 4 3 4 2 7 9 8 6 4 7 12 15 15 11
29 29 30 31 31 33 32 29 29 26 14 6 9 12 8 8 9 4 5 4 7 3 4 11 7 15 12 5 8 4 5 3 3 4 3 1 8 10 6 7 10 9 13 17 16 11 6
27 28 29 30 32 33 33 33 30 25 19 10 9 10 8 6 6 6 5 5 6 3 4 5 5 5 3 2 4 7 6 3 4 4 5 5 6 1 6 7 10 12 12 14 9 10 7
26 28 28 29 31 32 33 34 33 24 19 14 10 5 6 9 5 0 3 3 5 2 3 4 2 3 3 2 3 4 5 1 2 7 4 6 10 7 7 10 10 11 7 15 12 8 5
26 27 28 29 29 30 31 31 30 29 22 17 14 12 6 4 2 2 2 5 2 1 5 2 3 1 5 0 7 2 4 1 2 2 0 5 3 3 4 6 3 7 4 6 8 12 9
25 26 26 28 28 28 28 27 24 23 21 18 16 12 7 4 3 2 3 1 1 4 3 3 2 7 3 1 2 3 2 2 2 3 3 9 3 4 5 3 6 8 8 11 8 5 5
23 23 24 25 27 28 27 24 23 23 23 21 20 18 11 4 2 6 3 2 4 5 2 1 5 3 1 3 3 3 3 2 3 2 2 4 3 2 1 4 3 2 4 3 3 2 3
21 21 22 22 24 25 26 23 22 23 24 25 16 13 9 7 8 9 4 4 7 8 5 3 4 5 2 4 2 5 3 2 6 3 2 2 5 5 2 3 3 4 2 2 4 3 3
20 20 20 20 22 23 22 23 20 21 23 22 13 4 3 6 13 2 4 6 4 2 2 5 3 2 2 2 3 2 4 3 2 9 3 2 3 1 3 3 2 1 3 2 3 3 2
19 19 17 17 18 20 20 20 21 20 22 22 2 2 3 13 12 3 4 7 2 3 2 3 2 3 2 2 3 2 2 2 1 4 2 1 4 3 3 3 7 5 5 2 1 3 2
17 17 17 14 15 16 19 17 17 19 23 14 3 3 3 18 3 5 5 3 3 5 4 3 1 4 4 3 1 1 3 3 3 2 3 2 1 3 2 4 2 1 3 5 3 3 2
16 17 17 15 14 15 15 17 13 16 22 9 2 3 4 6 5 3 3 4 5 5 2 3 4 2 3 5 3 1 2 2 4 3 1 4 1 3 5 4 4 4 4 4 2 3 3
16 16 18 17 14 13 12 12 10 11 14 1 2 2 3 4 4 2 3 2 2 5 5 5 5 3 1 2 4 4 4 4 5 5 3 4 2 3 7 5 4 3 5 4 3 3 4
15 15 16 18 19 12 9 5 6 8 10 3 3 3 4 4 1 3 3 4 4 2 4 5 4 4 3 4 3 2 1 2 1 2 3 1 3 1 4 4 4 7 8 5 4 4 3
14 15 15 16 20 16 10 4 8 6 7 3 3 0 3 3 5 4 3 3 3 4 4 7 7 6 2 4 4 4 5 6 2 6 2 2 2 3 3 3 1 3 7 12 8 6 3
12 13 15 16 16 19 9 9 13 10 4 3 2 3 3 1 3 6 5 4 4 4 3 4 4 6 6 4 2 3 4 4 1 5 3 2 1 1 5 7 7 4 10 9 8 9 8
10 12 14 18 18 14 5 11 16 14 6 3 2 1 3 5 4 3 3 4 5 4 2 2 2 1 4 3 3 6 5 4 0 1 3 2 2 2 3 6 7 5 5 4 2 4 5
8 11 13 18 19 12 8 16 19 18 9 3 2 1 2 3 1 3 6 4 5 6 3 3 3 1 2 6 4 2 2 3 4 3 1 2 2 1 2 4 3 5 2 2 2 2 2
7 9 12 15 10 15 16 17 19 17 9 3 2 3 3 0 3 5 7 4 5 6 4 4 3 3 4 4 3 4 4 4 3 3 3 2 3 2 2 1 4 3 4 4 4 4 4
5 7 10 12 7 7 7 14 15 16 11 4 2 2 3 3 3 2 3 3 1 3 6 3 4 3 4 3 3 1 2 2 4 8 4 3 4 3 1 3 6 5 3 4 3 4 9
6 6 5 7 2 2 2 5 9 9 6 3 2 4 3 3 3 4 2 3 2 1 2 4 6 5 3 3 2 1 3 2 2 2 2 3 2 3 2 2 6 5 5 3 5 6 6
7 8 5 3 2 7 7 5 7 7 9 1 1 6 4 2 2 4 6 2 3 2 1 4 3 4 3 3 0 2 2 3 1 4 3 4 3 4 1 1 7 6 4 7 5 0 5
9 9 8 6 5 6 11 9 7 5 7 4 1 1 3 3 2 2 4 7 8 7 3 3 1 1 1 2 1 1 2 2 1 3 2 3 6 3 7 5 4 6 4 5 4 5 5
Wind_Direction
326 323 319 316 308 300 295 294 300 305 316 309 298 296 288 276 270 274 284 293 292 300 291 297 177 156 126 191 240 201 146 145 115 92 123 117 119 142 208 219 342 235 258 277 284 290 278
333 329 323 323 315 311 297 275 295 313 314 312 305 304 298 282 270 265 280 288 290 285 270 249 149 155 156 211 153 156 123 110 123 115 124 130 173 165 230 265 173 291 294 288 281 271 268
335 336 355 354 6 351 2 343 312 304 304 321 319 311 296 289 284 271 296 300 289 274 239 174 150 132 318 218 124 129 121 123 140 130 141 40 171 155 170 292 315 285 299 295 259 252 250
337 13 341 342 337 337 331 325 320 316 313 316 318 317 320 307 335 305 319 315 301 233 222 153 142 94 260 311 144 132 124 124 128 103 105 98 78 104 143 17 334 279 301 312 289 190 252
11 349 347 348 343 337 335 329 320 316 311 321 323 317 305 302 325 322 337 355 111 124 128 131 98 85 216 163 136 160 133 142 118 108 99 99 87 155 97 256 303 267 256 261 300 227 252
351 353 351 348 346 345 345 339 323 316 315 323 315 318 301 325 332 311 20 59 98 105 100 68 66 154 207 170 153 137 146 121 150 130 101 101 87 204 219 186 246 266 287 255 269 279 295
356 355 355 355 359 352 357 0 356 333 324 325 328 347 251 278 276 259 111 65 350 65 358 120 166 110 125 99 108 152 138 156 153 146 162 170 129 232 227 221 232 265 270 276 275 274 296
1 358 2 1 3 3 4 2 8 4 356 20 36 45 69 62 38 138 114 71 151 134 65 31 53 91 121 184 117 124 124 112 109 206 124 101 261 249 232 233 247 254 271 282 290 272 202
2 1 6 3 6 3 6 11 5 18 30 55 26 15 32 16 64 45 69 84 144 165 86 51 51 70 33 75 117 168 134 160 171 196 240 176 242 22 189 245 251 261 266 271 264 312 249
4 6 9 7 9 9 14 15 16 26 44 47 33 54 36 353 38 121 81 184 177 221 84 78 103 58 13 359 83 124 161 182 236 209 224 239 249 244 234 245 253 279 251 249 289 322 312
8 11 15 11 12 14 18 22 28 35 54 46 54 66 35 37 127 31 107 150 197 140 87 33 47 275 179 348 142 173 169 80 251 245 38 249 257 199 245 243 217 249 299 281 279 282 287
10 15 17 16 14 17 20 23 23 26 41 43 38 17 344 14 42 328 128 349 48 45 51 86 65 134 158 201 86 114 78 37 275 298 235 249 242 218 222 258 243 279 291 269 253 234 250
11 19 19 21 17 20 21 21 22 21 18 14 10 20 31 46 33 347 0 349 50 60 183 52 112 201 23 160 107 143 177 217 177 61 269 321 221 225 134 309 258 278 283 315 319 210 248
11 22 16 23 18 18 20 19 21 13 5 359 0 33 25 44 9 0 3 40 63 58 63 103 94 93 119 153 131 189 135 290 223 207 283 279 324 190 140 225 276 288 260 226 292 338 314
6 18 19 20 25 15 17 12 10 3 357 355 347 344 22 348 356 38 70 49 51 42 208 145 157 100 123 251 150 137 218 225 224 180 202 280 282 48 222 227 227 79 245 193 270 235 326
5 12 17 17 21 17 11 8 0 358 352 345 11 10 317 337 338 69 76 82 60 342 2 66 163 137 138 188 120 155 250 330 107 74 37 352 296 207 274 269 235 229 344 273 239 341 31
2 6 10 14 15 18 8 1 357 355 352 356 36 31 277 342 22 44 59 57 304 289 249 186 240 117 175 162 111 158 360 355 42 33 329 101 231 306 286 219 238 234 275 234 235 169 57
360 359 360 1 2 7 13 2 4 7 355 37 45 29 315 0 54 21 37 338 317 295 229 280 238 143 148 162 121 51 253 220 202 184 255 201 271 286 246 254 219 213 270 273 107 9 48
353 355 357 349 350 352 356 12 15 26 28 37 63 280 328 48 75 8 310 323 246 346 334 6 353 12 9 129 116 179 227 230 193 199 225 180 356 350 342 351 7 344 296 266 108 74 12
349 353 354 343 336 347 346 27 67 36 35 75 66 27 332 41 62 111 348 354 345 324 304 348 311 332 39 44 29 129 294 281 243 230 207 131 82 93 156 224 263 316 326 331 109 80 129
349 345 348 340 331 337 332 151 112 83 27 92 35 266 185 352 353 8 354 335 347 12 348 3 11 2 52 48 11 17 349 351 349 341 109 87 52 46 296 347 334 319 347 32 71 150 113
347 341 341 335 334 339 328 159 134 119 60 74 85 58 356 0 342 2 344 342 354 330 29 350 60 356 27 90 44 324 355 24 326 330 48 21 203 45 348 345 19 28 18 25 44 57 71
345 338 338 330 331 339 320 167 146 132 113 96 304 259 100 328 357 13 304 314 328 322 332 66 276 127 23 322 231 235 233 281 248 166 359 45 103 51 316 348 346 12 347 3 4 55 141
341 335 336 337 337 352 301 188 153 129 116 126 170 133 64 311 359 279 322 355 339 334 298 313 352 165 308 311 266 241 253 353 354 15 124 118 90 69 239 4 22 247 277 275 115 2 282
330 333 339 348 16 19 134 164 160 146 112 102 171 126 127 243 229 313 340 313 337 326 335 314 312 278 312 355 41 10 342 349 305 317 349 61 109 76 124 183 285 279 224 182 178 250 202
306 323 342 359 41 58 127 165 164 162 131 102 142 137 119 135 250 270 316 319 306 308 328 289 310 297 6 57 59 70 260 275 319 328 330 69 75 115 122 143 212 242 210 156 102 282 194
282 294 329 358 51 153 186 193 177 192 183 120 153 150 97 147 222 141 203 270 332 320 261 305 330 350 21 23 39 202 272 215 271 270 261 343 354 176 196 237 284 233 165 130 128 242 160
247 274 293 321 314 205 199 216 226 233 256 280 205 173 135 152 270 186 151 158 339 38 306 299 8 357 10 19 111 261 210 255 316 245 202 187 168 220 144 206 270 151 89 166 217 20 158
228 251 272 268 261 234 201 196 225 240 231 226 335 317 111 117 207 259 236 185 166 170 153 324 212 251 243 50 317 322 302 331 205 285 314 253 188 197 187 221 259 222 197 220 177 165 198